| time (UTC) | temp C | wind direction | speed KPH | gust KPH | rain 1hr cm | rain 24hr cm | rain mn cm | humidity % | barometer mb |
| 20260903174602 | 23 | 0 | 0.0 | 0.0 | 0.00 | 0.00 | 0.00 | 84 | 1011.6 |
| 20260903173107 | 23 | 0 | 0.0 | 0.0 | 0.00 | 0.00 | 0.00 | 85 | 1011.8 |
| 20260903171607 | 23 | 0 | 0.0 | 0.0 | 0.00 | 0.00 | 0.00 | 86 | 1011.9 |
| 20260903170057 | 23 | 0 | 0.0 | 0.0 | 0.00 | 0.00 | 0.00 | 85 | 1012.0 |
| 20260903164557 | 22 | 0 | 0.0 | 0.0 | 0.00 | 0.00 | 0.00 | 87 | 1012.0 |
| 20260903163052 | 22 | 0 | 0.0 | 0.0 | 0.00 | 0.00 | 0.00 | 88 | 1012.3 |
| 20260903161616 | 21 | 0 | 0.0 | 0.0 | 0.00 | 0.00 | 0.00 | 88 | 1012.4 |
| 20260903160055 | 21 | 0 | 0.0 | 0.0 | 0.00 | 0.00 | 0.00 | 89 | 1012.7 |
| 20260903154605 | 21 | 0 | 0.0 | 0.0 | 0.00 | 0.00 | 0.00 | 89 | 1012.8 |
| 20260903153059 | 21 | 0 | 0.0 | 0.0 | 0.00 | 0.00 | 0.00 | 89 | 1012.9 |
| 20260903151609 | 21 | 0 | 0.0 | 0.0 | 0.00 | 0.00 | 0.00 | 88 | 1013.1 |
| 20260903150105 | 21 | 0 | 0.0 | 0.0 | 0.00 | 0.00 | 0.00 | 87 | 1013.0 |
| 20260903144600 | 21 | 0 | 0.0 | 0.0 | 0.00 | 0.00 | 0.00 | 86 | 1013.0 |
| 20260903143055 | 21 | 0 | 0.0 | 0.0 | 0.00 | 0.00 | 0.00 | 87 | 1013.0 |
| 20260903141555 | 21 | 0 | 0.0 | 0.0 | 0.00 | 0.00 | 0.00 | 89 | 1013.0 |
| 20260903140106 | 21 | 0 | 0.0 | 0.0 | 0.00 | 0.00 | 0.00 | 90 | 1013.2 |
| 20260903134609 | 20 | 0 | 0.0 | 0.0 | 0.00 | 0.00 | 0.00 | 90 | 1013.1 |
| 20260903133100 | 20 | 0 | 0.0 | 0.0 | 0.00 | 0.00 | 0.00 | 90 | 1013.2 |
| 20260903131602 | 20 | 0 | 0.0 | 0.0 | 0.00 | 0.00 | 0.00 | 90 | 1013.2 |
| 20260903130054 | 20 | 0 | 0.0 | 0.0 | 0.00 | 0.00 | 0.00 | 90 | 1013.1 |
| 20260903124604 | 20 | 0 | 0.0 | 0.0 | 0.00 | 0.00 | 0.00 | 91 | 1013.2 |
| 20260903123058 | 20 | 0 | 0.0 | 0.0 | 0.00 | 0.00 | 0.00 | 91 | 1013.2 |
| 20260903121559 | 20 | 0 | 0.0 | 0.0 | 0.00 | 0.00 | 0.00 | 90 | 1013.1 |
| 20260903120056 | 20 | 0 | 0.0 | 0.0 | 0.00 | 0.00 | 0.00 | 90 | 1013.1 |
| 20260903114556 | 20 | 0 | 0.0 | 0.0 | 0.00 | 0.00 | 0.00 | 91 | 1013.4 |
| 20260903113056 | 19 | 0 | 0.0 | 0.0 | 0.00 | 0.00 | 0.00 | 91 | 1013.3 |
| 20260903111554 | 19 | 0 | 0.0 | 0.0 | 0.00 | 0.00 | 0.00 | 92 | 1013.3 |
| 20260903110059 | 19 | 0 | 0.0 | 0.0 | 0.00 | 0.00 | 0.00 | 91 | 1013.3 |
| 20260903104601 | 18 | 0 | 0.0 | 0.0 | 0.00 | 0.00 | 0.00 | 91 | 1013.3 |
| 20260903103059 | 18 | 0 | 0.0 | 0.0 | 0.00 | 0.00 | 0.00 | 91 | 1013.3 |
| 20260903101557 | 18 | 0 | 0.0 | 8.0 | 0.00 | 0.00 | 0.00 | 91 | 1013.3 |
| 20260903100056 | 18 | 0 | 0.0 | 1.6 | 0.00 | 0.00 | 0.00 | 91 | 1013.2 |
| 20260903094608 | 18 | 0 | 0.0 | 0.0 | 0.00 | 0.00 | 0.00 | 91 | 1013.2 |
| 20260903093054 | 18 | 0 | 0.0 | 0.0 | 0.00 | 0.00 | 0.00 | 90 | 1013.0 |
| 20260903091603 | 18 | 0 | 0.0 | 1.6 | 0.00 | 0.00 | 0.00 | 90 | 1013.1 |
| 20260903090100 | 18 | 0 | 0.0 | 6.4 | 0.00 | 0.00 | 0.00 | 89 | 1013.4 |
| 20260903084600 | 18 | 0 | 0.0 | 9.7 | 0.00 | 0.00 | 0.00 | 89 | 1013.2 |
| 20260903083104 | 18 | 0 | 0.0 | 6.4 | 0.00 | 0.00 | 0.00 | 90 | 1013.3 |
| 20260903081555 | 18 | 0 | 0.0 | 4.8 | 0.00 | 0.00 | 0.00 | 90 | 1013.5 |
| 20260903080059 | 18 | 0 | 0.0 | 8.0 | 0.00 | 0.00 | 0.00 | 90 | 1013.5 |
| 20260903074557 | 18 | 0 | 0.0 | 11.3 | 0.00 | 0.00 | 0.00 | 90 | 1013.8 |
| 20260903073112 | 18 | 0 | 0.0 | 6.4 | 0.00 | 0.00 | 0.00 | 90 | 1013.7 |
| 20260903071602 | 18 | 0 | 0.0 | 4.8 | 0.00 | 0.00 | 0.00 | 90 | 1013.6 |
| 20260903070103 | 18 | 0 | 0.0 | 6.4 | 0.00 | 0.00 | 0.00 | 90 | 1013.6 |
| 20260903064558 | 18 | 0 | 0.0 | 0.0 | 0.00 | 0.00 | 0.00 | 89 | 1013.7 |
| 20260903063104 | 18 | 0 | 0.0 | 11.3 | 0.00 | 0.00 | 0.00 | 87 | 1013.9 |
| 20260903061600 | 18 | 0 | 0.0 | 6.4 | 0.00 | 0.00 | 0.00 | 86 | 1014.2 |
| 20260903060100 | 18 | 0 | 0.0 | 12.9 | 0.00 | 0.00 | 0.00 | 86 | 1013.7 |
| 20260903054553 | 18 | 0 | 0.0 | 9.7 | 0.00 | 0.00 | 0.00 | 85 | 1014.1 |
| 20260903053057 | 18 | 0 | 0.0 | 9.7 | 0.00 | 0.00 | 0.00 | 85 | 1014.2 |
| 20260903051556 | 18 | 279 | 0.0 | 11.3 | 0.00 | 0.00 | 0.00 | 84 | 1014.6 |
| 20260903050106 | 19 | 0 | 0.0 | 19.3 | 0.00 | 0.00 | 0.00 | 82 | 1015.1 |
| 20260903044600 | 19 | 277 | 1.6 | 9.7 | 0.00 | 0.00 | 0.00 | 81 | 1014.9 |
| 20260903043108 | 19 | 317 | 0.0 | 9.7 | 0.00 | 0.00 | 0.00 | 79 | 1014.5 |
| 20260903041555 | 19 | 282 | 3.2 | 16.1 | 0.00 | 0.00 | 0.00 | 78 | 1014.3 |
| 20260903040110 | 19 | 276 | 1.6 | 11.3 | 0.00 | 0.00 | 0.00 | 78 | 1014.7 |
| 20260903034559 | 19 | 0 | 1.6 | 24.1 | 0.00 | 0.00 | 0.00 | 78 | 1014.5 |
| 20260903033058 | 19 | 0 | 0.0 | 12.9 | 0.00 | 0.00 | 0.00 | 79 | 1014.6 |
| 20260903031555 | 19 | 0 | 0.0 | 19.3 | 0.00 | 0.00 | 0.00 | 80 | 1014.7 |
| 20260903030108 | 19 | 265 | 1.6 | 17.7 | 0.00 | 0.00 | 0.00 | 79 | 1015.0 |
| 20260903024554 | 20 | 268 | 0.0 | 16.1 | 0.00 | 0.00 | 0.00 | 76 | 1015.4 |
| 20260903023107 | 20 | 313 | 3.2 | 19.3 | 0.00 | 0.00 | 0.00 | 74 | 1015.4 |
| 20260903021556 | 20 | 0 | 0.0 | 24.1 | 0.00 | 0.00 | 0.00 | 74 | 1015.7 |
| 20260903020058 | 20 | 255 | 1.6 | 16.1 | 0.00 | 0.00 | 0.00 | 75 | 1015.9 |
| 20260903014602 | 20 | 0 | 0.0 | 12.9 | 0.00 | 0.00 | 0.00 | 76 | 1016.1 |
| 20260903013057 | 20 | 168 | 0.0 | 12.9 | 0.00 | 0.00 | 0.00 | 77 | 1016.5 |
| 20260903011558 | 20 | 0 | 0.0 | 9.7 | 0.00 | 0.00 | 0.00 | 79 | 1016.8 |
| 20260903004603 | 20 | 279 | 0.0 | 12.9 | 0.00 | 0.00 | 0.00 | 77 | 1016.5 |
| 20260903003055 | 20 | 0 | 0.0 | 6.4 | 0.00 | 0.00 | 0.00 | 78 | 1016.4 |
| 20260903001559 | 20 | 0 | 0.0 | 3.2 | 0.00 | 0.00 | 0.00 | 79 | 1016.3 |
| 20260903000105 | 20 | 0 | 0.0 | 1.6 | 0.00 | 0.00 | 0.00 | 80 | 1016.1 |
| 20260902234555 | 20 | 0 | 0.0 | 1.6 | 0.00 | 0.00 | 0.00 | 83 | 1015.7 |
| 20260902233101 | 20 | 0 | 0.0 | 8.0 | 0.00 | 0.00 | 0.00 | 80 | 1016.2 |
| 20260902231600 | 20 | 0 | 0.0 | 3.2 | 0.00 | 0.00 | 0.00 | 81 | 1015.9 |
| 20260902230104 | 20 | 0 | 0.0 | 9.7 | 0.00 | 0.00 | 0.00 | 81 | 1016.1 |
| 20260902224600 | 20 | 0 | 0.0 | 4.8 | 0.00 | 0.00 | 0.00 | 82 | 1016.7 |
| 20260902223116 | 20 | 0 | 0.0 | 1.6 | 0.00 | 0.00 | 0.00 | 83 | 1017.0 |
| 20260902221556 | 20 | 0 | 0.0 | 4.8 | 0.00 | 0.00 | 0.00 | 81 | 1018.0 |
| 20260902220054 | 20 | 0 | 0.0 | 0.0 | 0.00 | 0.00 | 0.00 | 81 | 1018.2 |
| 20260902214556 | 20 | 0 | 0.0 | 0.0 | 0.00 | 0.00 | 0.00 | 81 | 1018.4 |
| 20260902213054 | 20 | 0 | 0.0 | 0.0 | 0.00 | 0.00 | 0.00 | 80 | 1018.2 |
| 20260902211555 | 20 | 0 | 0.0 | 0.0 | 0.00 | 0.00 | 0.00 | 80 | 1018.0 |
| 20260902210058 | 20 | 0 | 0.0 | 0.0 | 0.00 | 0.00 | 0.00 | 82 | 1018.3 |
| 20260902204640 | 20 | 0 | 0.0 | 0.0 | 0.00 | 0.00 | 0.00 | 82 | 1018.2 |
| 20260902203106 | 20 | 0 | 0.0 | 0.0 | 0.00 | 0.00 | 0.00 | 83 | 1018.0 |
| 20260902201600 | 20 | 0 | 0.0 | 0.0 | 0.00 | 0.00 | 0.00 | 82 | 1018.4 |
| 20260902200106 | 20 | 0 | 0.0 | 0.0 | 0.00 | 0.00 | 0.00 | 83 | 1018.4 |
| 20260902194555 | 20 | 0 | 0.0 | 0.0 | 0.00 | 0.00 | 0.00 | 82 | 1018.5 |
| 20260902193059 | 20 | 0 | 0.0 | 0.0 | 0.00 | 0.00 | 0.00 | 81 | 1018.5 |
| 20260902191556 | 20 | 0 | 0.0 | 0.0 | 0.00 | 0.00 | 0.00 | 80 | 1018.7 |
| 20260902190108 | 20 | 0 | 0.0 | 1.6 | 0.00 | 0.00 | 0.00 | 78 | 1018.9 |
| 20260902184602 | 20 | 0 | 0.0 | 9.7 | 0.00 | 0.00 | 0.00 | 77 | 1019.1 |
| 20260902183111 | 20 | 0 | 0.0 | 4.8 | 0.00 | 0.00 | 0.00 | 77 | 1019.3 |
| 20260902181613 | 20 | 0 | 0.0 | 8.0 | 0.00 | 0.00 | 0.00 | 77 | 1019.0 |